Miscellaneous Local Product
Issued by NWS Hastings, NE

Home | Current Version | Previous Version | Text Only | Print | Product List | Glossary Off
Versions: 1 2 3 4 5 6 7 8 9 10 11 12 13 14 15 16 17 18 19 20 21 22 23 24 25 26 27 28 29 30 31 32 33 34 35 36 37 38 39 40 41 42 43 44 45 46 47 48 49 50

000
AXUS43 KGID 020102
MISGRI

GID CWA HOURLY WEATHER ROUNDUP
NATIONAL WEATHER SERVICE HASTINGS NE
800 PM CDT SAT AUG 01 2015

NOTE: "FAIR" INDICATES FEW OR NO CLOUDS BELOW 12,000 FEET WITH NO
SIGNIFICANT WEATHER AND/OR OBSTRUCTIONS TO VISIBILITY.

...SOUTH CENTRAL NEBRASKA...

CITY           SKY/WX    TMP DP  RH WIND       PRES   REMARKS
GRAND ISLAND   MOCLDY    76  67  73 SE3       29.93F
HASTINGS       PTCLDY    81  67  62 S5        29.92F
KEARNEY        MOCLDY    79  64  61 S6        29.93F
ORD            MOCLDY    76  61  59 S3        29.91F
YORK           PTCLDY    75  72  88 CALM      29.93S
AURORA         MOCLDY    76  72  87 SE3       29.92F
LEXINGTON      MOCLDY    80  64  58 S8        29.94F
HOLDREGE       PTCLDY    79  65  60 E5        29.96F
HEBRON         CLEAR     83  67  57 E5        29.92F

...NEBRASKA PANHANDLE...

CITY           SKY/WX    TMP DP  RH WIND       PRES   REMARKS
CHADRON        SUNNY     87  57  35 S12       29.91F
ALLIANCE       SUNNY     81  58  45 SE8       29.97F
SCOTTSBLUFF    MOSUNNY   79  57  46 E15       29.99R
SIDNEY         PTSUNNY   69  55  60 E32G43    30.05R

...WESTERN AND NORTH CENTRAL NEBRASKA...

CITY           SKY/WX    TMP DP  RH WIND       PRES   REMARKS
VALENTINE      SUNNY     78  59  51 SW10      29.94F
AINSWORTH      CLEAR     78  60  55 SW6       29.95S
ONEILL         CLEAR     83  59  44 SW8       29.91F
BROKEN BOW     CLOUDY    78  60  53 SE3       29.93F
IMPERIAL       PTSUNNY   88  50  27 S15       29.97F
NORTH PLATTE   MOCLDY    75  63  66 E7        29.94F
MCCOOK         CLEAR     88  56  33 S8        29.94F

...EASTERN NEBRASKA...

CITY           SKY/WX    TMP DP  RH WIND       PRES   REMARKS
NORFOLK        CLEAR     79  66  64 S6        29.90F
SO SIOUX CITY  CLEAR     77  66  68 S10       29.88S
TEKAMAH        CLEAR     80  73  79 S5        29.89S
COLUMBUS       CLEAR     79  64  61 S5        29.90F
ALBION         CLEAR     77  64  63 SE3       29.91F
OMAHA EPPLEY   PTCLDY    83  70  64 SE9       29.89F
OFFUTT AFB     CLEAR     81  71  72 SE7       29.90S
MILLARD        CLEAR     84  69  60 S5        29.90S
LINCOLN        PTCLDY    82  64  54 VRB5      29.91S
NEBRASKA CITY  CLEAR     80  70  70 E3        29.92S
BEATRICE       PTCLDY    83  72  68 CALM      29.91S
FALLS CITY     CLEAR     82  77  84 SE3       29.90F HX  90

...NORTHERN KANSAS...

CITY           SKY/WX    TMP DP  RH WIND       PRES   REMARKS
GOODLAND       CLEAR     85  53  33 SE18G24   30.02F
HILL CITY      CLEAR     89  60  37 S10       29.95F
NORTON         CLEAR     88  52  29 SE8       29.94F
PHILLIPSBURG   CLEAR     90  63  40 CALM      29.93F HX  90
SMITH CENTER   CLEAR     88  59  37 S7        29.92F
HAYS           CLEAR     88  61  40 S12       29.95S
RUSSELL        CLEAR     87  62  43 S10       29.93F
CONCORDIA      CLEAR     84  65  52 S9        29.91F
SALINA         CLEAR     89  66  46 S10       29.92F HX  91
TOPEKA         CLEAR     88  71  57 SE5       29.92F HX  94



USA.gov is the U.S. government's official web portal to all federal, state and local government web resources and services.